Regional Weather Roundup
Issued by NWS

Home | Current Version | Previous Version | Text Only | Print | Product List | Glossary Off
Versions: 1 2 3 4 5 6 7 8 9 10 11 12 13 14 15 16 17 18 19 20 21 22 23 24 25 26 27 28 29 30 31 32 33 34 35 36 37 38 39 40 41 42 43 44 45 46 47 48 49 50

202
ASUS43 KDMX 230501
RWRIA

WEATHER ROUNDUP FOR IOWA
NATIONAL WEATHER SERVICE DES MOINES IA
1100 PM CST SUN JAN 22 2017

NOTE: "FAIR" INDICATES FEW OR NO CLOUDS BELOW 12,000 FEET WITH NO
SIGNIFICANT WEATHER AND/OR OBSTRUCTIONS TO VISIBILITY.

* - THESE STATIONS ARE NOT NWS STATIONS...THUS NOT UNDER NWS
QUALITY CONTROL.  THEY ALSO DO NOT REPORT WEATHER SUCH
AS PRECIPITATION OR FOG.

IAZ001>003-012>014-020>022-031>034-043>046-230600-
   NORTHWEST IOWA

CITY           SKY/WX    TMP DP  RH WIND       PRES   REMARKS
CARROLL *      CLOUDY    32  32 100 NW12      29.85S WCI  23
CHEROKEE *     CLOUDY    31  30  95 N12       29.86S WCI  22
DENISON *      CLOUDY    32  28  86 NW13      29.85S WCI  22
LE MARS *      CLOUDY    32  28  86 NW13      29.89R WCI  22
ORANGE CITY *  CLOUDY    30  28  93 NW8       29.86R WCI  23
SHELDON *      CLOUDY    30  30 100 NW13      29.84S WCI  20
SIOUX CITY     CLOUDY    33  28  81 NW16      29.89S WCI  23
SPENCER          N/A    N/A N/A N/A MISG      29.84S
STORM LAKE *   CLOUDY    30  28  93 NW14G22   29.84S FOG     WCI  20
$$

IAZ055>058-069>071-079>083-090>094-230600-
   SOUTHWEST IOWA

CITY           SKY/WX    TMP DP  RH WIND       PRES   REMARKS
ATLANTIC *     PTCLDY    32  30  93 NW8       29.87S WCI  25
AUDUBON *      MOCLDY    30  28  93 NW12      29.86S WCI  21
CLARINDA *     PTCLDY    32  32 100 N8        29.90R FOG     WCI  25
COUNCIL BLFS * PTCLDY    28  30 100 NW6       29.88R FOG     WCI  22
CRESTON *      CLOUDY    32  32 100 NW15      29.87R WCI  22
HARLAN  *      MOCLDY    32  32 100 NW12      29.90S WCI  23
LAMONI         CLOUDY    36  34  92 NW8       29.85R WCI  30
RED OAK *      CLEAR     30  30 100 CALM      29.88S FOG
SHENANDOAH *   FOG       30  30 100 CALM      29.90R VSB 3/4
$$

IAZ047>049-059>061-072>074-084-230600-
   CENTRAL IOWA

CITY           SKY/WX    TMP DP  RH WIND       PRES   REMARKS
AMES           CLOUDY    36  36 100 NW10      29.82R WCI  28
ANKENY *       CLOUDY    36  34  93 NW8G16    29.85R WCI  29
BOONE *        CLOUDY    34  34 100 NW10      29.81S FOG     WCI  26
CHARITON *     CLOUDY    37  36  93 NW8       29.84R FOG     WCI  31
DES MOINES     DRIZZLE   37  35  92 NW13      29.84R WCI  29
GRINNELL*      CLOUDY    36  35  95 NW8       29.82R FOG     WCI  30
KNOXVILLE *    CLOUDY    37  37 100 NW8G14    29.82R FOG     WCI  31
MARSHALLTOWN   CLOUDY    36  36 100 NW7       29.81R WCI  30
NEWTON *       CLOUDY    37  36  93 NW10      29.82R FOG     WCI  30
PELLA *        CLOUDY    37  36  96 NW8       29.85R FOG     WCI  31
PERRY *        CLOUDY    33  32  96 NW14      29.85R FOG     WCI  23
$$

IAZ004>006-015-016-023>025-035-036-230600-
   NORTH CENTRAL IOWA

CITY           SKY/WX    TMP DP  RH WIND       PRES   REMARKS
ALGONA *       CLOUDY    32  32 100 NW9G15    29.82F FOG     WCI  24
CLARION *      CLOUDY    34  34 100 NW15      29.81F FOG     WCI  24
ESTHERVILLE    CLOUDY    30  30 100 NW12      29.82F WCI  20
FORT DODGE *   CLOUDY    32  28  86 NW9       29.83F WCI  24
MASON CITY     CLOUDY    32  32 100 NW16      29.80F FOG     WCI  21
FOREST CITY *  CLOUDY    32  32 100 NW14      29.80F FOG     WCI  22
WEBSTER CITY * CLOUDY    32 N/A N/A NW13G18   29.80S FOG     WCI  22
IOWA FALLS *   CLOUDY    35  34  96 NW14      29.81S FOG     WCI  26
$$

IAZ007>011-017>019-026>030-037>042-050>054-066-230600-
   NORTHEAST IOWA

CITY           SKY/WX    TMP DP  RH WIND       PRES   REMARKS
CEDAR RAPIDS   CLOUDY    34  34 100 NW5       29.80R FOG     WCI  30
CHARLES CITY * CLOUDY    34  34 100 NW10      29.79R FOG     WCI  26
CLINTON *      CLOUDY    35  34  96 N3        29.78R
DECORAH *      CLOUDY    36  34  93 NW8       29.76R WCI  29
DUBUQUE        CLOUDY    35  35 100 NW3       29.77R FOG
MONTICELLO *   CLOUDY    36  36 100 NW6       29.79R WCI  31
OELWEIN *      CLOUDY    34  34 100 NW9       29.79R WCI  26
WATERLOO       CLOUDY    35  34  96 NW12      29.80R WCI  27
$$

IAZ064-065-067-068-078-230600-
   EAST CENTRAL IOWA

CITY           SKY/WX    TMP DP  RH WIND       PRES   REMARKS
DAVENPORT      CLOUDY    36  34  92 N8        29.78R WCI  30
IOWA CITY      CLOUDY    37  34  89 NW7       29.82R WCI  32
MUSCATINE *    CLOUDY    37  34  87 NW7       29.81R WCI  32
QUAD CITIES    CLOUDY    38  34  85 NW8       29.77R WCI  32
$$

IAZ062-063-075>077-085>089-095>099-230600-
   SOUTHEAST IOWA

CITY           SKY/WX    TMP DP  RH WIND       PRES   REMARKS
BURLINGTON     CLOUDY    37  36  96 NW10      29.78R WCI  30
FAIRFIELD *    CLOUDY    37  36  93 NW7       29.81S WCI  32
FORT MADISON * CLOUDY    37  36  93 NW8       29.80R FOG     WCI  31
KEOKUK *       CLOUDY    39 N/A N/A NW10      29.79S WCI  32
OSKALOOSA *    CLOUDY    35  34  96 NW7       29.83R FOG     WCI  30
CENTERVILLE *  CLOUDY    36  36 100 CALM      29.84R
OTTUMWA        CLOUDY    37  34  89 NW8       29.82R WCI  31
WASHINGTON *   CLOUDY    36  36 100 NW8       29.82S WCI  29
$$

ABBREVIATIONS USED IN REMARKS
   TC - TEMPERATURES IN CELSIUS
  WCI - WIND CHILL INDEX
   HX - HEAT INDEX
  VSB - VISIBILITY
$$





USA.gov is the U.S. government's official web portal to all federal, state and local government web resources and services.